Kodiak, AK

7:56 PM AKDT on May 24, 2018 (GMT -0800)
Kodiak

Weather History for PADQ - October, 2013

Change the Weather History Date:

Monday, October 28, 2013

  Actual Average Record
Temperature  
Mean Temperature 43 °F 37 °F  
Max Temperature 53 °F 43 °F 59 °F (1925)
Min Temperature 33 °F 32 °F 13 °F (1976)
Degree Days  
Heating Degree Days 22 28  
Month to date heating degree days 560 676  
Since 1 July heating degree days 1479 1777  
Cooling Degree Days 0 0  
Month to date cooling degree days 0 0  
Year to date cooling degree days 6 1  
Moisture  
Dew Point 40 °F    
Average Humidity 0    
Maximum Humidity 0    
Minimum Humidity 0    
Precipitation  
Precipitation 0.15 in 0.25 in 3.43 in (1997)
Month to date precipitation 8.66 7.51  
Year to date precipitation 56.11 61.65  
Snow  
Snow 0.00 in 0.10 in 3.50 in (1955)
Month to date snowfall 0.0 0.9  
Since 1 July snowfall 0.0 0.9  
Since 1 September snowfall 0.0 0.9  
Snow Depth 0.00 in    
Sea Level Pressure  
Sea Level Pressure 29.43 in    
Wind  
Wind Speed 8 mph (SSW)    
Max Wind Speed 25 mph    
Max Gust Speed 35 mph    
Visibility 9 miles    
Events Rain    
T = Trace of Precipitation, MM = Missing Value Source: NWS Daily Summary

Daily Weather History Graph

Daily Weather History Graph

Search for Another Location

Airport or City:

Astronomy

Oct. 28, 2013 Rise Set
Actual Time 9:15 AM AKDT 6:31 PM AKDT
Civil Twilight 8:33 AM AKDT 7:12 PM AKDT
Nautical Twilight 7:47 AM AKDT 7:58 PM AKDT
Astronomical Twilight 7:02 AM AKDT 8:43 PM AKDT
Moon 2:07 AM AKDT (10/28) 4:22 PM AKDT (10/28)
Length of Visible Light 10h 38m
Length of Day
9h 16m
Waning Crescent, 33% of the Moon is Illuminated
Oct 28
Waning Crescent
Nov 3
New
Nov 9
First Quarter
Nov 17
Full
Nov 25
Last Quarter

Hourly Weather History & Observations

Time (AKDT) Temp. Windchill Dew Point Humidity Pressure Visibility Wind Dir Wind Speed Gust Speed Precip Events Conditions
12:53 AM 54.0 °F - 50.0 °F 86% 29.41 in 4.0 mi SSE 21.9 mph 34.5 mph 0.09 in Rain Light Rain
1:53 AM 53.1 °F - 50.0 °F 89% 29.40 in 6.0 mi SSE 17.3 mph 28.8 mph 0.03 in Rain Light Rain
2:53 AM 52.0 °F - 48.0 °F 86% 29.41 in 10.0 mi SSE 5.8 mph - 0.02 in Rain Light Rain
3:39 AM 51.8 °F - 48.2 °F 88% 29.39 in 10.0 mi South 5.8 mph - 0.01 in Rain Light Rain
3:53 AM 51.1 °F - 48.9 °F 92% 29.39 in 10.0 mi SSE 6.9 mph - 0.01 in Rain Light Rain
4:53 AM 50.0 °F - 46.0 °F 86% 29.38 in 10.0 mi South 3.5 mph - 0.00 in   Overcast
5:53 AM 48.9 °F - 28.9 °F 46% 29.37 in 7.0 mi NE 5.8 mph - 0.01 in Rain Light Rain
6:53 AM 48.9 °F - 46.0 °F 90% 29.36 in 6.0 mi Calm Calm - 0.04 in Rain Light Rain
7:53 AM 48.0 °F - 44.1 °F 86% 29.35 in 9.0 mi Calm Calm - 0.03 in Rain Light Rain
8:53 AM 48.0 °F - 44.1 °F 86% 29.35 in 10.0 mi South 6.9 mph - 0.01 in   Overcast
9:53 AM 48.9 °F - 44.6 °F 85% 29.35 in 10.0 mi Calm Calm - N/A   Mostly Cloudy
10:53 AM 48.9 °F - 45.0 °F 86% 29.36 in 10.0 mi SW 5.8 mph - N/A   Mostly Cloudy
11:53 AM 50.0 °F - 45.0 °F 83% 29.36 in 10.0 mi SSW 9.2 mph - N/A   Scattered Clouds
12:53 PM 50.0 °F - 45.0 °F 83% 29.39 in 10.0 mi South 15.0 mph 21.9 mph N/A   Scattered Clouds
1:53 PM 51.1 °F - 39.0 °F 63% 29.41 in 10.0 mi South 15.0 mph 23.0 mph N/A   Scattered Clouds
2:53 PM 51.1 °F - 43.0 °F 74% 29.42 in 10.0 mi SSW 12.7 mph - N/A   Scattered Clouds
3:53 PM 51.1 °F - 37.9 °F 61% 29.44 in 10.0 mi South 13.8 mph - N/A   Scattered Clouds
4:53 PM 50.0 °F - 36.0 °F 59% 29.46 in 10.0 mi SSW 11.5 mph - N/A   Mostly Cloudy
5:53 PM 48.0 °F - 35.1 °F 61% 29.47 in 10.0 mi SSW 12.7 mph - N/A   Mostly Cloudy
6:53 PM 45.0 °F 43.5 °F 34.0 °F 65% 29.49 in 10.0 mi SW 3.5 mph - N/A   Scattered Clouds
7:53 PM 43.0 °F 39.5 °F 34.0 °F 71% 29.52 in 10.0 mi West 5.8 mph - N/A   Clear
8:53 PM 37.9 °F 32.7 °F 34.0 °F 86% 29.54 in 10.0 mi West 6.9 mph - N/A   Clear
9:53 PM 37.0 °F 32.4 °F 33.1 °F 86% 29.55 in 10.0 mi West 5.8 mph - N/A   Clear
10:53 PM 35.1 °F 30.1 °F 32.0 °F 89% 29.57 in 10.0 mi West 5.8 mph - N/A   Clear
11:53 PM 36.0 °F 31.1 °F 33.1 °F 89% 29.58 in 10.0 mi WNW 5.8 mph - N/A   Clear